Date_Time,Julian_Date,Latitude,Longitude,Instrument_Depth,U,V,Speed,Direction
(yyyy-mm-dd hh:mn:ss UTC),(JD),(+ deg. North),(+ deg. East),(m),(cm/s),(cm/s),(cm/s),(deg True)
1983-06-15 16:30:00 UTC,2445501.187500,28.7317,-95.2428,0109,-7.62,11.74,14.0000,327.0000
1983-06-15 17:00:00 UTC,2445501.208333,28.7317,-95.2428,0109,-5.92,12.69,14.0000,335.0000
1983-06-15 17:30:00 UTC,2445501.229167,28.7317,-95.2428,0109,-4.09,13.39,14.0000,343.0000
1983-06-15 18:00:00 UTC,2445501.250000,28.7317,-95.2428,0109,-1.81,12.87,13.0000,352.0000
1983-06-15 18:30:00 UTC,2445501.270833,28.7317,-95.2428,0109,0.68,12.98,13.0000,3.0000
1983-06-15 19:00:00 UTC,2445501.291667,28.7317,-95.2428,0109,2.92,12.67,13.0000,13.0000
1983-06-15 19:30:00 UTC,2445501.312500,28.7317,-95.2428,0109,5.24,12.98,14.0000,22.0000
1983-06-15 20:00:00 UTC,2445501.333333,28.7317,-95.2428,0109,7.04,13.24,15.0000,28.0000
1983-06-15 20:30:00 UTC,2445501.354167,28.7317,-95.2428,0109,7.73,12.86,15.0000,31.0000
1983-06-15 21:00:00 UTC,2445501.375000,28.7317,-95.2428,0109,9.18,13.11,16.0000,35.0000
1983-06-15 21:30:00 UTC,2445501.395833,28.7317,-95.2428,0109,10.50,12.08,16.0000,41.0000
1983-06-15 22:00:00 UTC,2445501.416667,28.7317,-95.2428,0109,12.02,12.02,17.0000,45.0000
1983-06-15 22:30:00 UTC,2445501.437500,28.7317,-95.2428,0109,13.38,12.04,18.0000,48.0000
1983-06-15 23:00:00 UTC,2445501.458333,28.7317,-95.2428,0109,12.26,10.28,16.0000,50.0000
1983-06-15 23:30:00 UTC,2445501.479167,28.7317,-95.2428,0109,12.29,8.60,15.0000,55.0000
1983-06-16 00:00:00 UTC,2445501.500000,28.7317,-95.2428,0109,12.22,4.45,13.0000,70.0000
1983-06-16 00:30:00 UTC,2445501.520833,28.7317,-95.2428,0109,10.99,0.38,11.0000,88.0000
1983-06-16 01:00:00 UTC,2445501.541667,28.7317,-95.2428,0109,8.73,-2.18,9.0000,104.0000
1983-06-16 01:30:00 UTC,2445501.562500,28.7317,-95.2428,0109,7.00,-3.88,8.0000,119.0000
1983-06-16 02:00:00 UTC,2445501.583333,28.7317,-95.2428,0109,4.68,-5.20,7.0000,138.0000
1983-06-16 02:30:00 UTC,2445501.604167,28.7317,-95.2428,0109,0.84,-5.94,6.0000,172.0000
1983-06-16 03:00:00 UTC,2445501.625000,28.7317,-95.2428,0109,-2.62,-6.49,7.0000,202.0000
1983-06-16 03:30:00 UTC,2445501.645833,28.7317,-95.2428,0109,-4.00,-6.93,8.0000,210.0000
1983-06-16 04:00:00 UTC,2445501.666667,28.7317,-95.2428,0109,-4.85,-8.75,10.0000,209.0000
1983-06-16 04:30:00 UTC,2445501.687500,28.7317,-95.2428,0109,-6.30,-11.37,13.0000,209.0000
1983-06-16 05:00:00 UTC,2445501.708333,28.7317,-95.2428,0109,-6.79,-12.24,14.0000,209.0000
1983-06-16 05:30:00 UTC,2445501.729167,28.7317,-95.2428,0109,-6.57,-12.36,14.0000,208.0000
1983-06-16 06:00:00 UTC,2445501.750000,28.7317,-95.2428,0109,-6.70,-11.14,13.0000,211.0000
1983-06-16 06:30:00 UTC,2445501.770833,28.7317,-95.2428,0109,-7.22,-9.58,12.0000,217.0000
1983-06-16 07:00:00 UTC,2445501.791667,28.7317,-95.2428,0109,-6.29,-7.77,10.0000,219.0000
1983-06-16 07:30:00 UTC,2445501.812500,28.7317,-95.2428,0109,-5.04,-4.86,7.0000,226.0000
1983-06-16 08:00:00 UTC,2445501.833333,28.7317,-95.2428,0109,-3.97,0.49,4.0000,277.0000
1983-06-16 08:30:00 UTC,2445501.854167,28.7317,-95.2428,0109,-2.91,5.25,6.0000,331.0000
1983-06-16 09:00:00 UTC,2445501.875000,28.7317,-95.2428,0109,-0.97,7.94,8.0000,353.0000
1983-06-16 09:30:00 UTC,2445501.895833,28.7317,-95.2428,0109,1.39,9.90,10.0000,8.0000
1983-06-16 10:00:00 UTC,2445501.916667,28.7317,-95.2428,0109,3.51,11.48,12.0000,17.0000
1983-06-16 10:30:00 UTC,2445501.937500,28.7317,-95.2428,0109,3.71,11.41,12.0000,18.0000
1983-06-16 11:00:00 UTC,2445501.958333,28.7317,-95.2428,0109,2.29,10.76,11.0000,12.0000
1983-06-16 11:30:00 UTC,2445501.979167,28.7317,-95.2428,0109,0.16,9.00,9.0000,1.0000
1983-06-16 12:00:00 UTC,2445502.000000,28.7317,-95.2428,0109,-1.80,7.79,8.0000,347.0000
1983-06-16 12:30:00 UTC,2445502.020833,28.7317,-95.2428,0109,-3.51,7.19,8.0000,334.0000
1983-06-16 13:00:00 UTC,2445502.041667,28.7317,-95.2428,0109,-5.74,8.19,10.0000,325.0000
1983-06-16 13:30:00 UTC,2445502.062500,28.7317,-95.2428,0109,-6.62,8.78,11.0000,323.0000
1983-06-16 14:00:00 UTC,2445502.083333,28.7317,-95.2428,0109,-7.64,10.52,13.0000,324.0000
1983-06-16 14:30:00 UTC,2445502.104167,28.7317,-95.2428,0109,-8.03,11.47,14.0000,325.0000
1983-06-16 15:00:00 UTC,2445502.125000,28.7317,-95.2428,0109,-9.18,13.11,16.0000,325.0000
1983-06-16 15:30:00 UTC,2445502.145833,28.7317,-95.2428,0109,-9.01,14.42,17.0000,328.0000
1983-06-16 16:00:00 UTC,2445502.166667,28.7317,-95.2428,0109,-7.61,16.31,18.0000,335.0000
1983-06-16 16:30:00 UTC,2445502.187500,28.7317,-95.2428,0109,-5.85,19.13,20.0000,343.0000
1983-06-16 17:00:00 UTC,2445502.208333,28.7317,-95.2428,0109,-2.97,18.77,19.0000,351.0000
1983-06-16 17:30:00 UTC,2445502.229167,28.7317,-95.2428,0109,-0.63,17.99,18.0000,358.0000
1983-06-16 18:00:00 UTC,2445502.250000,28.7317,-95.2428,0109,1.66,18.93,19.0000,5.0000
1983-06-16 18:30:00 UTC,2445502.270833,28.7317,-95.2428,0109,3.82,19.63,20.0000,11.0000
1983-06-16 19:00:00 UTC,2445502.291667,28.7317,-95.2428,0109,5.85,19.13,20.0000,17.0000
1983-06-16 19:30:00 UTC,2445502.312500,28.7317,-95.2428,0109,7.42,17.49,19.0000,23.0000
1983-06-16 20:00:00 UTC,2445502.333333,28.7317,-95.2428,0109,8.92,16.78,19.0000,28.0000
1983-06-16 20:30:00 UTC,2445502.354167,28.7317,-95.2428,0109,10.62,15.75,19.0000,34.0000
1983-06-16 21:00:00 UTC,2445502.375000,28.7317,-95.2428,0109,11.96,14.77,19.0000,39.0000
1983-06-16 21:30:00 UTC,2445502.395833,28.7317,-95.2428,0109,12.28,13.16,18.0000,43.0000
1983-06-16 22:00:00 UTC,2445502.416667,28.7317,-95.2428,0109,13.90,12.96,19.0000,47.0000
1983-06-16 22:30:00 UTC,2445502.437500,28.7317,-95.2428,0109,15.97,12.04,20.0000,53.0000
1983-06-16 23:00:00 UTC,2445502.458333,28.7317,-95.2428,0109,18.37,10.18,21.0000,61.0000
1983-06-16 23:30:00 UTC,2445502.479167,28.7317,-95.2428,0109,19.47,7.87,21.0000,68.0000
1983-06-17 00:00:00 UTC,2445502.500000,28.7317,-95.2428,0109,19.86,6.84,21.0000,71.0000
1983-06-17 00:30:00 UTC,2445502.520833,28.7317,-95.2428,0109,17.21,5.26,18.0000,73.0000
1983-06-17 01:00:00 UTC,2445502.541667,28.7317,-95.2428,0109,14.49,3.88,15.0000,75.0000
1983-06-17 01:30:00 UTC,2445502.562500,28.7317,-95.2428,0109,11.59,3.11,12.0000,75.0000
1983-06-17 02:00:00 UTC,2445502.583333,28.7317,-95.2428,0109,9.56,2.92,10.0000,73.0000
1983-06-17 02:30:00 UTC,2445502.604167,28.7317,-95.2428,0109,8.22,3.66,9.0000,66.0000
1983-06-17 03:00:00 UTC,2445502.625000,28.7317,-95.2428,0109,6.47,4.70,8.0000,54.0000
1983-06-17 03:30:00 UTC,2445502.645833,28.7317,-95.2428,0109,5.95,5.35,8.0000,48.0000
1983-06-17 04:00:00 UTC,2445502.666667,28.7317,-95.2428,0109,5.46,5.85,8.0000,43.0000
1983-06-17 04:30:00 UTC,2445502.687500,28.7317,-95.2428,0109,4.50,7.79,9.0000,30.0000
1983-06-17 05:00:00 UTC,2445502.708333,28.7317,-95.2428,0109,3.42,9.40,10.0000,20.0000
1983-06-17 05:30:00 UTC,2445502.729167,28.7317,-95.2428,0109,3.75,9.27,10.0000,22.0000
1983-06-17 06:00:00 UTC,2445502.750000,28.7317,-95.2428,0109,4.69,8.83,10.0000,28.0000
1983-06-17 06:30:00 UTC,2445502.770833,28.7317,-95.2428,0109,4.54,8.91,10.0000,27.0000
1983-06-17 07:00:00 UTC,2445502.791667,28.7317,-95.2428,0109,3.76,10.34,11.0000,20.0000
1983-06-17 07:30:00 UTC,2445502.812500,28.7317,-95.2428,0109,3.31,11.54,12.0000,16.0000
1983-06-17 08:00:00 UTC,2445502.833333,28.7317,-95.2428,0109,3.58,12.50,13.0000,16.0000
1983-06-17 08:30:00 UTC,2445502.854167,28.7317,-95.2428,0109,4.02,12.36,13.0000,18.0000
1983-06-17 09:00:00 UTC,2445502.875000,28.7317,-95.2428,0109,4.87,12.05,13.0000,22.0000
1983-06-17 09:30:00 UTC,2445502.895833,28.7317,-95.2428,0109,6.10,11.48,13.0000,28.0000
1983-06-17 10:00:00 UTC,2445502.916667,28.7317,-95.2428,0109,7.05,9.71,12.0000,36.0000
1983-06-17 10:30:00 UTC,2445502.937500,28.7317,-95.2428,0109,6.58,6.14,9.0000,47.0000
1983-06-17 11:00:00 UTC,2445502.958333,28.7317,-95.2428,0109,4.97,3.36,6.0000,56.0000
1983-06-17 11:30:00 UTC,2445502.979167,28.7317,-95.2428,0109,4.05,2.94,5.0000,54.0000
1983-06-17 12:00:00 UTC,2445503.000000,28.7317,-95.2428,0109,3.54,3.54,5.0000,45.0000
1983-06-17 12:30:00 UTC,2445503.020833,28.7317,-95.2428,0109,2.68,2.97,4.0000,42.0000
1983-06-17 13:00:00 UTC,2445503.041667,28.7317,-95.2428,0109,2.35,3.24,4.0000,36.0000
1983-06-17 13:30:00 UTC,2445503.062500,28.7317,-95.2428,0109,2.12,3.39,4.0000,32.0000
1983-06-17 14:00:00 UTC,2445503.083333,28.7317,-95.2428,0109,1.81,2.40,3.0000,37.0000
1983-06-17 14:30:00 UTC,2445503.104167,28.7317,-95.2428,0109,0.53,0.85,1.0000,32.0000
1983-06-17 15:00:00 UTC,2445503.125000,28.7317,-95.2428,0109,-0.07,1.00,1.0000,356.0000
1983-06-17 15:30:00 UTC,2445503.145833,28.7317,-95.2428,0109,-1.00,0.09,1.0000,275.0000
1983-06-17 16:00:00 UTC,2445503.166667,28.7317,-95.2428,0109,-2.74,-1.22,3.0000,246.0000
1983-06-17 16:30:00 UTC,2445503.187500,28.7317,-95.2428,0109,-3.63,-1.69,4.0000,245.0000
1983-06-17 17:00:00 UTC,2445503.208333,28.7317,-95.2428,0109,-4.64,-1.87,5.0000,248.0000
1983-06-17 17:30:00 UTC,2445503.229167,28.7317,-95.2428,0109,-4.83,-1.29,5.0000,255.0000
1983-06-17 18:00:00 UTC,2445503.250000,28.7317,-95.2428,0109,-5.00,-0.00,5.0000,270.0000
1983-06-17 18:30:00 UTC,2445503.270833,28.7317,-95.2428,0109,-5.71,1.85,6.0000,288.0000
1983-06-17 19:00:00 UTC,2445503.291667,28.7317,-95.2428,0109,-4.97,3.36,6.0000,304.0000
1983-06-17 19:30:00 UTC,2445503.312500,28.7317,-95.2428,0109,-3.94,4.53,6.0000,319.0000
1983-06-17 20:00:00 UTC,2445503.333333,28.7317,-95.2428,0109,-2.72,5.35,6.0000,333.0000
1983-06-17 20:30:00 UTC,2445503.354167,28.7317,-95.2428,0109,-2.39,6.58,7.0000,340.0000
1983-06-17 21:00:00 UTC,2445503.375000,28.7317,-95.2428,0109,-1.69,6.79,7.0000,346.0000
1983-06-17 21:30:00 UTC,2445503.395833,28.7317,-95.2428,0109,-0.28,8.00,8.0000,358.0000
1983-06-17 22:00:00 UTC,2445503.416667,28.7317,-95.2428,0109,2.33,8.69,9.0000,15.0000
1983-06-17 22:30:00 UTC,2445503.437500,28.7317,-95.2428,0109,4.82,9.89,11.0000,26.0000
1983-06-17 23:00:00 UTC,2445503.458333,28.7317,-95.2428,0109,6.36,10.18,12.0000,32.0000
1983-06-17 23:30:00 UTC,2445503.479167,28.7317,-95.2428,0109,8.36,9.96,13.0000,40.0000
1983-06-18 00:00:00 UTC,2445503.500000,28.7317,-95.2428,0109,9.19,9.19,13.0000,45.0000
1983-06-18 00:30:00 UTC,2445503.520833,28.7317,-95.2428,0109,11.49,9.64,15.0000,50.0000
1983-06-18 01:00:00 UTC,2445503.541667,28.7317,-95.2428,0109,13.71,8.24,16.0000,59.0000
1983-06-18 01:30:00 UTC,2445503.562500,28.7317,-95.2428,0109,15.15,7.72,17.0000,63.0000
1983-06-18 02:00:00 UTC,2445503.583333,28.7317,-95.2428,0109,16.31,7.61,18.0000,65.0000
1983-06-18 02:30:00 UTC,2445503.604167,28.7317,-95.2428,0109,17.12,5.56,18.0000,72.0000
1983-06-18 03:00:00 UTC,2445503.625000,28.7317,-95.2428,0109,16.87,2.07,17.0000,83.0000
1983-06-18 03:30:00 UTC,2445503.645833,28.7317,-95.2428,0109,15.99,-0.56,16.0000,92.0000
1983-06-18 04:00:00 UTC,2445503.666667,28.7317,-95.2428,0109,15.52,-3.87,16.0000,104.0000
1983-06-18 04:30:00 UTC,2445503.687500,28.7317,-95.2428,0109,14.57,-8.76,17.0000,121.0000
1983-06-18 05:00:00 UTC,2445503.708333,28.7317,-95.2428,0109,13.89,-14.39,20.0000,136.0000
1983-06-18 05:30:00 UTC,2445503.729167,28.7317,-95.2428,0109,11.74,-17.41,21.0000,146.0000
1983-06-18 06:00:00 UTC,2445503.750000,28.7317,-95.2428,0109,5.51,-19.23,20.0000,164.0000
1983-06-18 06:30:00 UTC,2445503.770833,28.7317,-95.2428,0109,-1.20,-22.97,23.0000,183.0000
1983-06-18 07:00:00 UTC,2445503.791667,28.7317,-95.2428,0109,-4.96,-25.52,26.0000,191.0000
1983-06-18 07:30:00 UTC,2445503.812500,28.7317,-95.2428,0109,-6.53,-26.20,27.0000,194.0000
1983-06-18 08:00:00 UTC,2445503.833333,28.7317,-95.2428,0109,-9.44,-27.42,29.0000,199.0000
1983-06-18 08:30:00 UTC,2445503.854167,28.7317,-95.2428,0109,-13.15,-26.96,30.0000,206.0000
1983-06-18 09:00:00 UTC,2445503.875000,28.7317,-95.2428,0109,-16.06,-22.94,28.0000,215.0000
1983-06-18 09:30:00 UTC,2445503.895833,28.7317,-95.2428,0109,-16.37,-17.55,24.0000,223.0000
1983-06-18 10:00:00 UTC,2445503.916667,28.7317,-95.2428,0109,-14.38,-10.83,18.0000,233.0000
1983-06-18 10:30:00 UTC,2445503.937500,28.7317,-95.2428,0109,-12.58,-6.14,14.0000,244.0000
1983-06-18 11:00:00 UTC,2445503.958333,28.7317,-95.2428,0109,-8.61,-2.63,9.0000,253.0000
1983-06-18 11:30:00 UTC,2445503.979167,28.7317,-95.2428,0109,-5.77,1.65,6.0000,286.0000
1983-06-18 12:00:00 UTC,2445504.000000,28.7317,-95.2428,0109,-5.16,7.37,9.0000,325.0000
1983-06-18 12:30:00 UTC,2445504.020833,28.7317,-95.2428,0109,-5.90,11.58,13.0000,333.0000
1983-06-18 13:00:00 UTC,2445504.041667,28.7317,-95.2428,0109,-6.25,14.73,16.0000,337.0000
1983-06-18 13:30:00 UTC,2445504.062500,28.7317,-95.2428,0109,-4.64,14.27,15.0000,342.0000
1983-06-18 14:00:00 UTC,2445504.083333,28.7317,-95.2428,0109,-1.95,13.86,14.0000,352.0000
1983-06-18 14:30:00 UTC,2445504.104167,28.7317,-95.2428,0109,0.98,13.97,14.0000,4.0000
1983-06-18 15:00:00 UTC,2445504.125000,28.7317,-95.2428,0109,2.03,12.84,13.0000,9.0000
1983-06-18 15:30:00 UTC,2445504.145833,28.7317,-95.2428,0109,1.05,11.95,12.0000,5.0000
1983-06-18 16:00:00 UTC,2445504.166667,28.7317,-95.2428,0109,-1.88,11.85,12.0000,351.0000
1983-06-18 16:30:00 UTC,2445504.187500,28.7317,-95.2428,0109,-4.87,12.05,13.0000,338.0000
1983-06-18 17:00:00 UTC,2445504.208333,28.7317,-95.2428,0109,-4.66,12.14,13.0000,339.0000
1983-06-18 17:30:00 UTC,2445504.229167,28.7317,-95.2428,0109,-1.91,10.83,11.0000,350.0000
1983-06-18 18:00:00 UTC,2445504.250000,28.7317,-95.2428,0109,1.39,7.88,8.0000,10.0000
1983-06-18 18:30:00 UTC,2445504.270833,28.7317,-95.2428,0109,4.21,5.59,7.0000,37.0000
1983-06-18 19:00:00 UTC,2445504.291667,28.7317,-95.2428,0109,4.66,3.78,6.0000,51.0000
1983-06-18 19:30:00 UTC,2445504.312500,28.7317,-95.2428,0109,3.41,3.66,5.0000,43.0000
1983-06-18 20:00:00 UTC,2445504.333333,28.7317,-95.2428,0109,2.50,4.33,5.0000,30.0000
1983-06-18 20:30:00 UTC,2445504.354167,28.7317,-95.2428,0109,2.65,4.24,5.0000,32.0000
1983-06-18 21:00:00 UTC,2445504.375000,28.7317,-95.2428,0109,3.77,3.28,5.0000,49.0000
1983-06-18 21:30:00 UTC,2445504.395833,28.7317,-95.2428,0109,4.99,0.35,5.0000,86.0000
1983-06-18 22:00:00 UTC,2445504.416667,28.7317,-95.2428,0109,5.73,-4.02,7.0000,125.0000
1983-06-18 22:30:00 UTC,2445504.437500,28.7317,-95.2428,0109,4.07,-9.14,10.0000,156.0000
1983-06-18 23:00:00 UTC,2445504.458333,28.7317,-95.2428,0109,0.42,-11.99,12.0000,178.0000
1983-06-18 23:30:00 UTC,2445504.479167,28.7317,-95.2428,0109,-1.95,-13.86,14.0000,188.0000
1983-06-19 00:00:00 UTC,2445504.500000,28.7317,-95.2428,0109,-3.12,-14.67,15.0000,192.0000
1983-06-19 00:30:00 UTC,2445504.520833,28.7317,-95.2428,0109,-4.41,-15.38,16.0000,196.0000
1983-06-19 01:00:00 UTC,2445504.541667,28.7317,-95.2428,0109,-6.09,-15.87,17.0000,201.0000
1983-06-19 01:30:00 UTC,2445504.562500,28.7317,-95.2428,0109,-7.45,-15.28,17.0000,206.0000
1983-06-19 02:00:00 UTC,2445504.583333,28.7317,-95.2428,0109,-8.48,-13.57,16.0000,212.0000
1983-06-19 02:30:00 UTC,2445504.604167,28.7317,-95.2428,0109,-9.40,-12.94,16.0000,216.0000
1983-06-19 03:00:00 UTC,2445504.625000,28.7317,-95.2428,0109,-9.99,-13.75,17.0000,216.0000
1983-06-19 03:30:00 UTC,2445504.645833,28.7317,-95.2428,0109,-11.17,-15.37,19.0000,216.0000
1983-06-19 04:00:00 UTC,2445504.666667,28.7317,-95.2428,0109,-12.04,-15.97,20.0000,217.0000
1983-06-19 04:30:00 UTC,2445504.687500,28.7317,-95.2428,0109,-12.64,-16.77,21.0000,217.0000
1983-06-19 05:00:00 UTC,2445504.708333,28.7317,-95.2428,0109,-13.84,-18.37,23.0000,217.0000
1983-06-19 05:30:00 UTC,2445504.729167,28.7317,-95.2428,0109,-16.99,-20.98,27.0000,219.0000
1983-06-19 06:00:00 UTC,2445504.750000,28.7317,-95.2428,0109,-23.40,-20.34,31.0000,229.0000
1983-06-19 06:30:00 UTC,2445504.770833,28.7317,-95.2428,0109,-30.02,-15.96,34.0000,242.0000
1983-06-19 07:00:00 UTC,2445504.791667,28.7317,-95.2428,0109,-33.47,-10.23,35.0000,253.0000
1983-06-19 07:30:00 UTC,2445504.812500,28.7317,-95.2428,0109,-33.67,-4.73,34.0000,262.0000
1983-06-19 08:00:00 UTC,2445504.833333,28.7317,-95.2428,0109,-32.00,-0.00,32.0000,270.0000
1983-06-19 08:30:00 UTC,2445504.854167,28.7317,-95.2428,0109,-30.92,2.16,31.0000,274.0000
1983-06-19 09:00:00 UTC,2445504.875000,28.7317,-95.2428,0109,-29.78,3.66,30.0000,277.0000
1983-06-19 09:30:00 UTC,2445504.895833,28.7317,-95.2428,0109,-30.43,5.91,31.0000,281.0000
1983-06-19 10:00:00 UTC,2445504.916667,28.7317,-95.2428,0109,-30.32,6.45,31.0000,282.0000
1983-06-19 10:30:00 UTC,2445504.937500,28.7317,-95.2428,0109,-27.66,4.38,28.0000,279.0000
1983-06-19 11:00:00 UTC,2445504.958333,28.7317,-95.2428,0109,-23.70,3.75,24.0000,279.0000
1983-06-19 11:30:00 UTC,2445504.979167,28.7317,-95.2428,0109,-17.82,2.51,18.0000,278.0000
1983-06-19 12:00:00 UTC,2445505.000000,28.7317,-95.2428,0109,-14.92,1.57,15.0000,276.0000
1983-06-19 12:30:00 UTC,2445505.020833,28.7317,-95.2428,0109,-12.80,2.26,13.0000,280.0000
1983-06-19 13:00:00 UTC,2445505.041667,28.7317,-95.2428,0109,-10.13,4.30,11.0000,293.0000
1983-06-19 13:30:00 UTC,2445505.062500,28.7317,-95.2428,0109,-7.31,6.82,10.0000,313.0000
1983-06-19 14:00:00 UTC,2445505.083333,28.7317,-95.2428,0109,-6.69,7.43,10.0000,318.0000
1983-06-19 14:30:00 UTC,2445505.104167,28.7317,-95.2428,0109,-6.25,6.47,9.0000,316.0000
1983-06-19 15:00:00 UTC,2445505.125000,28.7317,-95.2428,0109,-5.46,5.85,8.0000,317.0000
1983-06-19 15:30:00 UTC,2445505.145833,28.7317,-95.2428,0109,-4.17,4.32,6.0000,316.0000
1983-06-19 16:00:00 UTC,2445505.166667,28.7317,-95.2428,0109,-4.73,3.69,6.0000,308.0000
1983-06-19 16:30:00 UTC,2445505.187500,28.7317,-95.2428,0109,-5.35,2.72,6.0000,297.0000
1983-06-19 17:00:00 UTC,2445505.208333,28.7317,-95.2428,0109,-5.87,1.25,6.0000,282.0000
1983-06-19 17:30:00 UTC,2445505.229167,28.7317,-95.2428,0109,-5.74,-1.75,6.0000,253.0000
1983-06-19 18:00:00 UTC,2445505.250000,28.7317,-95.2428,0109,-4.31,-5.52,7.0000,218.0000
1983-06-19 18:30:00 UTC,2445505.270833,28.7317,-95.2428,0109,-3.66,-8.22,9.0000,204.0000
1983-06-19 19:00:00 UTC,2445505.291667,28.7317,-95.2428,0109,-3.42,-9.40,10.0000,200.0000
1983-06-19 19:30:00 UTC,2445505.312500,28.7317,-95.2428,0109,-2.59,-9.66,10.0000,195.0000
1983-06-19 20:00:00 UTC,2445505.333333,28.7317,-95.2428,0109,-1.05,-11.95,12.0000,185.0000
1983-06-19 20:30:00 UTC,2445505.354167,28.7317,-95.2428,0109,0.49,-13.99,14.0000,178.0000
1983-06-19 21:00:00 UTC,2445505.375000,28.7317,-95.2428,0109,0.00,-15.00,15.0000,180.0000
1983-06-19 21:30:00 UTC,2445505.395833,28.7317,-95.2428,0109,-2.09,-14.85,15.0000,188.0000
1983-06-19 22:00:00 UTC,2445505.416667,28.7317,-95.2428,0109,-4.11,-16.50,17.0000,194.0000
1983-06-19 22:30:00 UTC,2445505.437500,28.7317,-95.2428,0109,-5.51,-19.23,20.0000,196.0000
1983-06-19 23:00:00 UTC,2445505.458333,28.7317,-95.2428,0109,-7.87,-21.61,23.0000,200.0000
1983-06-19 23:30:00 UTC,2445505.479167,28.7317,-95.2428,0109,-10.17,-22.84,25.0000,204.0000
1983-06-20 00:00:00 UTC,2445505.500000,28.7317,-95.2428,0109,-13.78,-22.05,26.0000,212.0000
1983-06-20 00:30:00 UTC,2445505.520833,28.7317,-95.2428,0109,-18.87,-16.40,25.0000,229.0000
1983-06-20 01:00:00 UTC,2445505.541667,28.7317,-95.2428,0109,-20.67,-10.08,23.0000,244.0000
1983-06-20 01:30:00 UTC,2445505.562500,28.7317,-95.2428,0109,-19.61,-7.53,21.0000,249.0000
1983-06-20 02:00:00 UTC,2445505.583333,28.7317,-95.2428,0109,-18.41,-7.81,20.0000,247.0000
1983-06-20 02:30:00 UTC,2445505.604167,28.7317,-95.2428,0109,-19.71,-11.85,23.0000,239.0000
1983-06-20 03:00:00 UTC,2445505.625000,28.7317,-95.2428,0109,-21.03,-15.28,26.0000,234.0000
1983-06-20 03:30:00 UTC,2445505.645833,28.7317,-95.2428,0109,-21.45,-18.00,28.0000,230.0000
1983-06-20 04:00:00 UTC,2445505.666667,28.7317,-95.2428,0109,-22.54,-18.25,29.0000,231.0000
1983-06-20 04:30:00 UTC,2445505.687500,28.7317,-95.2428,0109,-24.06,-12.26,27.0000,243.0000
1983-06-20 05:00:00 UTC,2445505.708333,28.7317,-95.2428,0109,-24.58,-8.46,26.0000,251.0000
1983-06-20 05:30:00 UTC,2445505.729167,28.7317,-95.2428,0109,-25.98,-15.00,30.0000,240.0000
1983-06-20 06:00:00 UTC,2445505.750000,28.7317,-95.2428,0109,-28.34,-23.78,37.0000,230.0000
1983-06-20 06:30:00 UTC,2445505.770833,28.7317,-95.2428,0109,-31.96,-28.77,43.0000,228.0000
1983-06-20 07:00:00 UTC,2445505.791667,28.7317,-95.2428,0109,-36.41,-32.79,49.0000,228.0000
1983-06-20 07:30:00 UTC,2445505.812500,28.7317,-95.2428,0109,-38.30,-32.14,50.0000,230.0000
1983-06-20 08:00:00 UTC,2445505.833333,28.7317,-95.2428,0109,-38.33,-28.89,48.0000,233.0000
1983-06-20 08:30:00 UTC,2445505.854167,28.7317,-95.2428,0109,-39.42,-25.60,47.0000,237.0000
1983-06-20 09:00:00 UTC,2445505.875000,28.7317,-95.2428,0109,-38.97,-22.50,45.0000,240.0000
1983-06-20 09:30:00 UTC,2445505.895833,28.7317,-95.2428,0109,-36.85,-17.97,41.0000,244.0000
1983-06-20 10:00:00 UTC,2445505.916667,28.7317,-95.2428,0109,-34.31,-13.86,37.0000,248.0000
1983-06-20 10:30:00 UTC,2445505.937500,28.7317,-95.2428,0109,-37.30,-11.40,39.0000,253.0000
1983-06-20 11:00:00 UTC,2445505.958333,28.7317,-95.2428,0109,-40.75,-10.16,42.0000,256.0000
1983-06-20 11:30:00 UTC,2445505.979167,28.7317,-95.2428,0109,-40.25,-7.82,41.0000,259.0000
1983-06-20 12:00:00 UTC,2445506.000000,28.7317,-95.2428,0109,-34.66,-4.87,35.0000,262.0000
1983-06-20 12:30:00 UTC,2445506.020833,28.7317,-95.2428,0109,-27.85,-2.93,28.0000,264.0000
1983-06-20 13:00:00 UTC,2445506.041667,28.7317,-95.2428,0109,-24.00,-0.00,24.0000,270.0000
1983-06-20 13:30:00 UTC,2445506.062500,28.7317,-95.2428,0109,-24.86,2.61,25.0000,276.0000
1983-06-20 14:00:00 UTC,2445506.083333,28.7317,-95.2428,0109,-27.73,3.90,28.0000,278.0000
1983-06-20 14:30:00 UTC,2445506.104167,28.7317,-95.2428,0109,-30.70,4.31,31.0000,278.0000
1983-06-20 15:00:00 UTC,2445506.125000,28.7317,-95.2428,0109,-35.73,4.39,36.0000,277.0000
1983-06-20 15:30:00 UTC,2445506.145833,28.7317,-95.2428,0109,-38.71,4.75,39.0000,277.0000
1983-06-20 16:00:00 UTC,2445506.166667,28.7317,-95.2428,0109,-37.63,5.29,38.0000,278.0000
1983-06-20 16:30:00 UTC,2445506.187500,28.7317,-95.2428,0109,-34.57,5.48,35.0000,279.0000
1983-06-20 17:00:00 UTC,2445506.208333,28.7317,-95.2428,0109,-32.59,5.16,33.0000,279.0000
1983-06-20 17:30:00 UTC,2445506.229167,28.7317,-95.2428,0109,-32.50,5.73,33.0000,280.0000
1983-06-20 18:00:00 UTC,2445506.250000,28.7317,-95.2428,0109,-33.29,10.82,35.0000,288.0000
1983-06-20 18:30:00 UTC,2445506.270833,28.7317,-95.2428,0109,-32.36,15.78,36.0000,296.0000
1983-06-20 19:00:00 UTC,2445506.291667,28.7317,-95.2428,0109,-30.61,16.97,35.0000,299.0000
1983-06-20 19:30:00 UTC,2445506.312500,28.7317,-95.2428,0109,-28.29,17.00,33.0000,301.0000
1983-06-20 20:00:00 UTC,2445506.333333,28.7317,-95.2428,0109,-25.08,18.22,31.0000,306.0000
1983-06-20 20:30:00 UTC,2445506.354167,28.7317,-95.2428,0109,-20.48,19.10,28.0000,313.0000
1983-06-20 21:00:00 UTC,2445506.375000,28.7317,-95.2428,0109,-16.67,17.26,24.0000,316.0000
1983-06-20 21:30:00 UTC,2445506.395833,28.7317,-95.2428,0109,-14.39,13.89,20.0000,314.0000
1983-06-20 22:00:00 UTC,2445506.416667,28.7317,-95.2428,0109,-13.58,11.81,18.0000,311.0000
1983-06-20 22:30:00 UTC,2445506.437500,28.7317,-95.2428,0109,-12.95,12.50,18.0000,314.0000
1983-06-20 23:00:00 UTC,2445506.458333,28.7317,-95.2428,0109,-12.21,14.55,19.0000,320.0000
1983-06-20 23:30:00 UTC,2445506.479167,28.7317,-95.2428,0109,-11.76,16.18,20.0000,324.0000
1983-06-21 00:00:00 UTC,2445506.500000,28.7317,-95.2428,0109,-10.62,15.75,19.0000,326.0000
1983-06-21 00:30:00 UTC,2445506.520833,28.7317,-95.2428,0109,-8.00,13.86,16.0000,330.0000
1983-06-21 01:00:00 UTC,2445506.541667,28.7317,-95.2428,0109,-6.57,12.36,14.0000,332.0000
1983-06-21 01:30:00 UTC,2445506.562500,28.7317,-95.2428,0109,-5.07,10.88,12.0000,335.0000
1983-06-21 02:00:00 UTC,2445506.583333,28.7317,-95.2428,0109,-3.22,10.52,11.0000,343.0000
1983-06-21 02:30:00 UTC,2445506.604167,28.7317,-95.2428,0109,-1.10,8.93,9.0000,353.0000
1983-06-21 03:00:00 UTC,2445506.625000,28.7317,-95.2428,0109,-1.72,8.83,9.0000,349.0000
1983-06-21 03:30:00 UTC,2445506.645833,28.7317,-95.2428,0109,-3.58,10.40,11.0000,341.0000
1983-06-21 04:00:00 UTC,2445506.666667,28.7317,-95.2428,0109,-4.41,15.38,16.0000,344.0000
1983-06-21 04:30:00 UTC,2445506.687500,28.7317,-95.2428,0109,-2.97,18.77,19.0000,351.0000
1983-06-21 05:00:00 UTC,2445506.708333,28.7317,-95.2428,0109,-0.70,19.99,20.0000,358.0000